DW8343 Weather Reports


time (UTC)temp
F
wind
direction
speed
knots
gust
knots
rain 1hr
in
rain 24hr
in
rain mn
in
humidity
%
barometer
mb
20260831094952 83 264 0.9 1.7 0.00 0.00 0.00 51 1016.2
20260831094448 83 240 1.7 2.6 0.00 0.00 0.00 50 1016.1
20260831093944 83 220 0.0 2.6 0.00 0.00 0.00 50 1016.1
20260831093439 84 307 1.7 2.6 0.00 0.00 0.00 50 1016.1
20260831092935 84 239 1.7 2.6 0.00 0.00 0.00 50 1016.1
20260831092431 84 299 1.7 3.5 0.00 0.00 0.00 49 1015.9
20260831091925 84 358 0.0 5.2 0.00 0.00 0.00 49 1015.7
20260831091420 84 286 0.9 7.8 0.00 0.00 0.00 49 1015.7
20260831090910 84 320 0.9 2.6 0.00 0.00 0.00 49 1015.5
20260831090406 84 236 0.0 1.7 0.00 0.00 0.00 49 1015.6
20260831085903 84 71 0.9 1.7 0.00 0.00 0.00 49 1015.8
20260831085402 85 308 0.0 3.5 0.00 0.00 0.00 49 1015.7
20260831084856 85 264 1.7 5.2 0.00 0.00 0.00 49 1015.5
20260831084353 85 252 1.7 3.5 0.00 0.00 0.00 48 1015.5
20260831083849 85 230 1.7 3.5 0.00 0.00 0.00 48 1015.6
20260831083344 85 271 1.7 5.2 0.00 0.00 0.00 48 1015.4
20260831082842 85 277 1.7 5.2 0.00 0.00 0.00 48 1015.8
20260831082332 86 177 0.9 5.2 0.00 0.00 0.00 48 1015.5
20260831081827 86 252 3.5 6.1 0.00 0.00 0.00 47 1015.7
20260831081322 86 238 4.3 5.2 0.00 0.00 0.00 47 1015.5
20260831080818 86 314 1.7 8.7 0.00 0.00 0.00 47 1015.6
20260831080313 86 207 0.9 2.6 0.00 0.00 0.00 47 1015.7
20260831075809 86 121 2.6 3.5 0.00 0.00 0.00 47 1015.7
20260831075306 85 238 1.7 3.5 0.00 0.00 0.00 47 1015.5
20260831074803 86 118 0.0 2.6 0.00 0.00 0.00 46 1015.6
20260831074302 86 37 0.9 3.5 0.00 0.00 0.00 46 1015.7
20260831073759 85 275 0.0 1.7 0.00 0.00 0.00 46 1015.5
20260831073257 85 211 0.9 1.7 0.00 0.00 0.00 46 1015.5
20260831072752 86 266 1.7 2.6 0.00 0.00 0.00 46 1015.5
20260831072249 86 258 0.0 3.5 0.00 0.00 0.00 46 1015.5
20260831071744 86 219 0.9 1.7 0.00 0.00 0.00 46 1015.5
20260831071238 86 231 2.6 5.2 0.00 0.00 0.00 45 1015.4
20260831070733 86 94 0.0 1.7 0.00 0.00 0.00 45 1015.5
20260831070227 87 227 0.9 1.7 0.00 0.00 0.00 44 1015.5
20260831065726 87 192 0.0 2.6 0.00 0.00 0.00 44 1015.5
20260831065224 87 55 0.9 2.6 0.00 0.00 0.00 44 1015.4
20260831064719 87 329 0.9 3.5 0.00 0.00 0.00 44 1015.5
20260831064215 87 54 0.9 1.7 0.00 0.00 0.00 44 1015.4
20260831063711 87 298 0.0 1.7 0.00 0.00 0.00 44 1015.3
20260831063206 87 194 0.0 5.2 0.00 0.00 0.00 44 1015.3
20260831062705 87 74 0.9 1.7 0.00 0.00 0.00 44 1015.3
20260831062205 88 254 1.7 3.5 0.00 0.00 0.00 44 1015.4
20260831061703 88 150 0.9 1.7 0.00 0.00 0.00 44 1015.3
20260831061159 88 273 0.0 3.5 0.00 0.00 0.00 44 1015.5
20260831060655 88 155 0.9 2.6 0.00 0.00 0.00 44 1015.6
20260831060154 88 318 0.0 3.5 0.00 0.00 0.00 44 1015.6
20260831055653 88 262 1.7 3.5 0.00 0.00 0.00 44 1015.3
20260831055149 88 83 0.9 3.5 0.00 0.00 0.00 44 1015.3
20260831054644 88 231 2.6 6.1 0.00 0.00 0.00 44 1015.3
20260831054143 88 267 0.9 1.7 0.00 0.00 0.00 43 1015.2
20260831053639 88 276 1.7 2.6 0.00 0.00 0.00 43 1015.2
20260831053137 88 158 0.9 3.5 0.00 0.00 0.00 43 1015.2
20260831052636 88 269 0.9 5.2 0.00 0.00 0.00 44 1015.3
20260831052135 88 268 1.7 3.5 0.00 0.00 0.00 44 1015.2
20260831051629 88 245 0.9 2.6 0.00 0.00 0.00 44 1015.1
20260831051127 89 34 2.6 3.5 0.00 0.00 0.00 44 1015.1
20260831050622 89 303 1.7 2.6 0.00 0.00 0.00 44 1015.2
20260831050120 89 48 1.7 3.5 0.00 0.00 0.00 44 1015.3
20260831045620 89 283 4.3 5.2 0.00 0.00 0.00 43 1015.3
20260831045110 89 252 2.6 5.2 0.00 0.00 0.00 43 1015.1
20260831044605 89 264 2.6 5.2 0.00 0.00 0.00 43 1015.1
20260831044100 89 205 1.7 6.1 0.00 0.00 0.00 43 1015.0
20260831043555 89 4 0.9 2.6 0.00 0.00 0.00 44 1015.1
20260831043051 89 142 1.7 7.0 0.00 0.00 0.00 43 1015.1
20260831042550 89 49 3.5 8.7 0.00 0.00 0.00 44 1015.0
20260831042045 89 349 1.7 1.7 0.00 0.00 0.00 44 1015.1
20260831041540 89 254 0.0 1.7 0.00 0.00 0.00 44 1015.1
20260831041039 89 281 0.9 2.6 0.00 0.00 0.00 43 1015.0
20260831040534 89 134 0.9 3.5 0.00 0.00 0.00 43 1015.0
20260831040033 90 292 2.6 3.5 0.00 0.00 0.00 42 1014.9
20260831035525 90 280 1.7 3.5 0.00 0.00 0.00 42 1015.1
20260831035021 90 271 0.0 1.7 0.00 0.00 0.00 42 1015.1
20260831034515 90 269 1.7 3.5 0.00 0.00 0.00 41 1015.1
20260831034010 91 241 1.7 2.6 0.00 0.00 0.00 41 1015.0
20260831033506 91 70 0.0 6.1 0.00 0.00 0.00 41 1014.8
20260831033001 91 249 1.7 2.6 0.00 0.00 0.00 41 1015.0
20260831032501 91 74 0.9 2.6 0.00 0.00 0.00 41 1014.9
20260831031956 91 273 0.9 1.7 0.00 0.00 0.00 41 1014.9
20260831031455 92 28 0.9 2.6 0.00 0.00 0.00 41 1014.9
20260831030955 92 351 1.7 5.2 0.00 0.00 0.00 41 1014.8
20260831030454 92 259 2.6 5.2 0.00 0.00 0.00 41 1014.8
20260831025952 92 90 0.9 6.1 0.00 0.00 0.00 41 1014.7
20260831025452 92 146 0.0 1.7 0.00 0.00 0.00 41 1014.6
20260831024948 92 260 0.9 6.1 0.00 0.00 0.00 40 1014.6
20260831024443 92 240 3.5 6.1 0.00 0.00 0.00 40 1014.6
20260831023942 92 19 0.9 3.5 0.00 0.00 0.00 40 1014.3
20260831023440 93 58 1.7 3.5 0.00 0.00 0.00 40 1014.2
20260831022936 93 165 0.9 2.6 0.00 0.00 0.00 39 1014.2
20260831022435 93 149 0.9 3.5 0.00 0.00 0.00 39 1014.2
20260831021930 93 261 1.7 5.2 0.00 0.00 0.00 39 1014.1
20260831021429 93 345 1.7 2.6 0.00 0.00 0.00 39 1014.0
20260831020925 93 113 0.0 0.9 0.00 0.00 0.00 38 1013.9
20260831020425 93 80 0.9 1.7 0.00 0.00 0.00 38 1013.8
20260831015920 93 324 0.9 0.9 0.00 0.00 0.00 38 1013.7
20260831015416 93 268 0.9 1.7 0.00 0.00 0.00 38 1013.7
20260831014911 94 180 0.9 0.9 0.00 0.00 0.00 37 1013.7
20260831014410 94 280 0.9 2.6 0.00 0.00 0.00 37 1013.6
20260831013907 94 302 1.7 2.6 0.00 0.00 0.00 36 1013.4
20260831013402 94 72 1.7 1.7 0.00 0.00 0.00 36 1013.6
20260831012902 95 189 0.9 1.7 0.00 0.00 0.00 36 1013.3
20260831012357 95 255 0.0 2.6 0.00 0.00 0.00 36 1013.3
20260831011852 95 324 0.0 1.7 0.00 0.00 0.00 36 1013.3
20260831011346 96 38 0.0 2.6 0.00 0.00 0.00 35 1013.2
20260831010842 96 97 1.7 3.5 0.00 0.00 0.00 35 1013.2
20260831010341 96 261 0.9 3.5 0.00 0.00 0.00 35 1013.0
20260831005838 96 270 0.9 1.7 0.00 0.00 0.00 34 1013.3
20260831005333 97 126 0.9 2.6 0.00 0.00 0.00 34 1013.2
20260831004827 98 319 1.7 3.5 0.00 0.00 0.00 33 1013.1
20260831004324 98 37 0.9 2.6 0.00 0.00 0.00 33 1013.3
20260831003819 98 203 3.5 3.5 0.00 0.00 0.00 33 1013.2
20260831003315 98 245 0.9 6.1 0.00 0.00 0.00 33 1013.3
20260831002815 98 65 1.7 6.1 0.00 0.00 0.00 33 1013.3
20260831002308 98 238 3.5 6.1 0.00 0.00 0.00 32 1013.1
20260831001805 99 222 3.5 6.1 0.00 0.00 0.00 32 1013.0
20260831001304 99 276 3.5 6.1 0.00 0.00 0.00 32 1013.0
20260831000802 99 236 2.6 7.0 0.00 0.00 0.00 32 1013.3
20260831000303 99 243 4.3 7.8 0.00 0.00 0.00 32 1013.3
20260830235800 99 318 0.9 2.6 0.00 0.00 0.00 32 1013.1
20260830235255 100 25 2.6 6.1 0.00 0.00 0.00 32 1013.4
20260830234750 100 96 2.6 3.5 0.00 0.00 0.00 32 1013.2
20260830234246 100 48 0.9 5.2 0.00 0.00 0.00 31 1013.2
20260830233742 100 230 1.7 2.6 0.00 0.00 0.00 31 1013.4
20260830233237 100 222 3.5 3.5 0.00 0.00 0.00 31 1013.2
20260830232732 100 281 0.0 6.1 0.00 0.00 0.00 31 1013.3
20260830232228 101 317 1.7 2.6 0.00 0.00 0.00 31 1013.2
20260830231725 101 290 1.7 6.1 0.00 0.00 0.00 31 1013.2
20260830231224 101 265 0.9 7.8 0.00 0.00 0.00 31 1013.3
20260830230719 101 176 2.6 6.1 0.00 0.00 0.00 31 1013.3
20260830230214 101 265 0.0 1.7 0.00 0.00 0.00 31 1013.2
20260830225709 101 215 1.7 7.0 0.00 0.00 0.00 30 1013.1
20260830225209 102 239 2.6 5.2 0.00 0.00 0.00 30 1013.4
20260830224708 101 291 1.7 2.6 0.00 0.00 0.00 30 1013.3
20260830224204 102 359 1.7 5.2 0.00 0.00 0.00 30 1013.3
20260830223701 103 224 1.7 3.5 0.00 0.00 0.00 29 1013.2
20260830223156 103 266 0.9 5.2 0.00 0.00 0.00 29 1013.2
20260830222650 103 264 1.7 3.5 0.00 0.00 0.00 29 1013.2
20260830222146 104 103 2.6 11.3 0.00 0.00 0.00 29 1013.1
20260830221641 104 319 1.7 9.6 0.00 0.00 0.00 29 1013.0
20260830221132 103 261 4.3 7.8 0.00 0.00 0.00 29 1013.0
20260830220627 104 283 3.5 7.0 0.00 0.00 0.00 29 1013.2
20260830220126 103 243 1.7 3.5 0.00 0.00 0.00 29 1013.1
20260830215625 103 112 4.3 7.0 0.00 0.00 0.00 28 1013.2
20260830215120 103 346 1.7 8.7 0.00 0.00 0.00 29 1013.1
20260830214615 104 123 1.7 6.1 0.00 0.00 0.00 28 1013.4
20260830214110 104 285 1.7 8.7 0.00 0.00 0.00 29 1013.4
20260830213609 104 237 2.6 8.7 0.00 0.00 0.00 28 1013.4
20260830213105 103 226 2.6 8.7 0.00 0.00 0.00 28 1013.4
20260830212600 104 99 1.7 5.2 0.00 0.00 0.00 28 1013.5
20260830212055 104 75 1.7 7.8 0.00 0.00 0.00 29 1013.5
20260830211550 103 3 0.9 6.1 0.00 0.00 0.00 29 1013.7
20260830211049 104 254 4.3 7.8 0.00 0.00 0.00 29 1013.6
20260830210544 105 301 0.9 3.5 0.00 0.00 0.00 28 1013.5
20260830210038 104 269 3.5 5.2 0.00 0.00 0.00 29 1013.7
20260830205536 105 81 0.9 3.5 0.00 0.00 0.00 29 1013.9
20260830205032 104 249 1.7 2.6 0.00 0.00 0.00 29 1013.9
20260830204531 104 246 1.7 6.1 0.00 0.00 0.00 29 1013.8
20260830204030 105 46 2.6 5.2 0.00 0.00 0.00 30 1014.1
20260830203527 105 241 0.9 3.5 0.00 0.00 0.00 30 1014.0
20260830203021 105 273 2.6 5.2 0.00 0.00 0.00 29 1014.3
20260830202521 105 81 1.7 3.5 0.00 0.00 0.00 29 1014.2
20260830202017 105 118 1.7 6.1 0.00 0.00 0.00 30 1014.4
20260830201516 105 183 2.6 2.6 0.00 0.00 0.00 29 1014.3
20260830201011 104 220 0.9 6.1 0.00 0.00 0.00 30 1014.5
20260830200507 105 184 3.5 3.5 0.00 0.00 0.00 30 1014.5
20260830200006 104 339 0.9 7.8 0.00 0.00 0.00 30 1014.7
20260830195501 103 296 3.5 7.8 0.00 0.00 0.00 30 1014.8
20260830194959 104 139 2.6 6.1 0.00 0.00 0.00 30 1014.9
20260830194458 103 127 3.5 5.2 0.00 0.00 0.00 31 1014.9
20260830193948 103 237 4.3 7.8 0.00 0.00 0.00 31 1015.0
20260830193447 104 198 4.3 8.7 0.00 0.00 0.00 31 1014.9
20260830192943 103 141 1.7 7.8 0.00 0.00 0.00 32 1015.0
20260830192438 103 68 1.7 7.8 0.00 0.00 0.00 32 1014.9
20260830191933 104 259 3.5 8.7 0.00 0.00 0.00 31 1015.0
20260830191432 103 157 1.7 7.0 0.00 0.00 0.00 31 1014.9
20260830190928 103 254 3.5 6.1 0.00 0.00 0.00 32 1014.8
20260830190423 102 270 1.7 7.8 0.00 0.00 0.00 33 1015.1
20260830185922 103 203 2.6 5.2 0.00 0.00 0.00 32 1015.1
20260830185418 102 232 1.7 7.0 0.00 0.00 0.00 32 1015.0
20260830184913 102 200 4.3 6.1 0.00 0.00 0.00 33 1015.2
20260830184412 102 225 5.2 9.6 0.00 0.00 0.00 33 1015.2
20260830183911 102 252 2.6 7.8 0.00 0.00 0.00 33 1015.6
20260830183406 101 200 2.6 11.3 0.00 0.00 0.00 34 1015.3
20260830182902 102 238 3.5 7.0 0.00 0.00 0.00 34 1015.4
20260830182357 101 272 3.5 7.8 0.00 0.00 0.00 34 1015.5
20260830181854 102 313 3.5 8.7 0.00 0.00 0.00 32 1015.6
20260830181349 102 243 2.6 7.8 0.00 0.00 0.00 32 1015.7
20260830180848 101 65 2.6 8.7 0.00 0.00 0.00 35 1015.6
20260830180343 102 260 1.7 6.1 0.00 0.00 0.00 34 1015.8
20260830175842 101 155 2.6 7.8 0.00 0.00 0.00 35 1015.7
20260830175337 100 118 0.9 5.2 0.00 0.00 0.00 36 1015.9
20260830174832 101 241 3.5 9.6 0.00 0.00 0.00 35 1015.9
20260830174327 100 315 0.9 8.7 0.00 0.00 0.00 35 1015.8
20260830173827 100 242 7.8 11.3 0.00 0.00 0.00 36 1015.8
20260830173323 100 313 4.3 7.0 0.00 0.00 0.00 36 1016.3
20260830172819 100 276 0.9 8.7 0.00 0.00 0.00 36 1016.4
20260830172315 100 328 1.7 5.2 0.00 0.00 0.00 37 1016.3
20260830171811 99 85 1.7 7.0 0.00 0.00 0.00 37 1016.3
20260830171306 99 294 3.5 6.1 0.00 0.00 0.00 37 1016.6
20260830170800 99 48 1.7 3.5 0.00 0.00 0.00 38 1016.6
20260830170259 99 325 3.5 7.8 0.00 0.00 0.00 38 1016.6
20260830165753 98 202 3.5 7.8 0.00 0.00 0.00 38 1016.6
20260830165249 99 243 7.0 9.6 0.00 0.00 0.00 38 1016.6
20260830164745 98 75 0.0 11.3 0.00 0.00 0.00 39 1016.7
20260830164241 98 171 3.5 6.1 0.00 0.00 0.00 38 1016.4
20260830163738 97 196 0.9 7.8 0.00 0.00 0.00 39 1016.5
20260830163233 97 315 3.5 11.3 0.00 0.00 0.00 40 1016.6
20260830162727 98 258 3.5 7.0 0.00 0.00 0.00 39 1016.6
20260830162223 97 32 2.6 6.1 0.00 0.00 0.00 40 1016.8
20260830161718 97 172 2.6 7.0 0.00 0.00 0.00 40 1016.8
20260830161212 96 242 1.7 6.1 0.00 0.00 0.00 40 1016.9
20260830160708 97 277 5.2 9.6 0.00 0.00 0.00 40 1016.9
20260830160203 97 248 3.5 7.8 0.00 0.00 0.00 40 1016.7
20260830155700 96 198 4.3 6.1 0.00 0.00 0.00 41 1016.8
20260830155155 95 189 1.7 5.2 0.00 0.00 0.00 43 1016.9
20260830154650 95 251 3.5 6.1 0.00 0.00 0.00 43 1016.8
20260830154146 94 270 1.7 2.6 0.00 0.00 0.00 43 1016.6
20260830153643 93 257 1.7 3.5 0.00 0.00 0.00 45 1016.8
20260830153142 92 18 1.7 6.1 0.00 0.00 0.00 46 1016.7
20260830152641 92 263 1.7 3.5 0.00 0.00 0.00 45 1016.8
20260830152140 92 83 1.7 3.5 0.00 0.00 0.00 46 1016.9
20260830151636 92 233 2.6 5.2 0.00 0.00 0.00 47 1016.8
20260830151135 91 240 0.9 3.5 0.00 0.00 0.00 47 1016.8
20260830150630 90 295 1.7 5.2 0.00 0.00 0.00 48 1016.9
20260830150125 90 338 2.6 5.2 0.00 0.00 0.00 48 1016.9
20260830145624 90 189 2.6 7.0 0.00 0.00 0.00 48 1016.9
20260830145120 89 112 2.6 6.1 0.00 0.00 0.00 49 1016.8
20260830144615 89 36 0.9 7.0 0.00 0.00 0.00 49 1017.0
20260830144111 89 254 1.7 7.0 0.00 0.00 0.00 49 1017.1
20260830143607 88 304 1.7 3.5 0.00 0.00 0.00 50 1016.8
20260830143105 88 36 2.6 7.0 0.00 0.00 0.00 50 1017.0
20260830142600 87 276 3.5 5.2 0.00 0.00 0.00 50 1017.2
20260830142055 87 264 1.7 7.0 0.00 0.00 0.00 51 1017.0
20260830141550 87 335 4.3 7.0 0.00 0.00 0.00 50 1017.2
20260830141050 87 341 2.6 5.2 0.00 0.00 0.00 51 1017.3
20260830140545 87 215 1.7 7.8 0.00 0.00 0.00 51 1017.2
20260830140041 86 335 0.9 5.2 0.00 0.00 0.00 52 1017.2
20260830135536 86 228 0.9 5.2 0.00 0.00 0.00 51 1017.1
20260830135031 86 350 2.6 3.5 0.00 0.00 0.00 52 1017.2
20260830134527 85 275 0.0 7.8 0.00 0.00 0.00 52 1017.1
20260830134022 85 231 0.9 3.5 0.00 0.00 0.00 53 1017.1
20260830133518 84 335 1.7 6.1 0.00 0.00 0.00 53 1016.9
20260830133012 84 108 3.5 6.1 0.00 0.00 0.00 53 1017.2
20260830132509 83 218 0.9 3.5 0.00 0.00 0.00 55 1017.2
20260830132009 83 218 0.9 3.5 0.00 0.00 0.00 55 1017.2
20260830131507 82 160 1.7 1.7 0.00 0.00 0.00 55 1017.0
20260830131002 81 219 2.6 3.5 0.00 0.00 0.00 57 1017.0
20260830130457 80 340 1.7 1.7 0.00 0.00 0.00 57 1017.0
20260830125955 80 278 1.7 2.6 0.00 0.00 0.00 58 1017.0
20260830125451 80 95 1.7 1.7 0.00 0.00 0.00 58 1016.9
20260830124949 80 301 0.9 2.6 0.00 0.00 0.00 58 1016.9
20260830124439 79 274 0.0 0.9 0.00 0.00 0.00 59 1016.7
20260830123936 79 42 0.9 2.6 0.00 0.00 0.00 59 1016.7
20260830123432 79 42 0.0 2.6 0.00 0.00 0.00 59 1016.9
20260830122930 79 40 0.9 1.7 0.00 0.00 0.00 59 1016.6
20260830122429 79 95 0.0 0.9 0.00 0.00 0.00 59 1016.7
20260830121924 79 17 0.9 2.6 0.00 0.00 0.00 58 1016.6
20260830121420 79 302 1.7 3.5 0.00 0.00 0.00 58 1016.5
20260830120914 79 112 0.9 2.6 0.00 0.00 0.00 58 1016.6
20260830120410 79 36 0.9 3.5 0.00 0.00 0.00 58 1016.6
20260830115906 79 154 0.9 1.7 0.00 0.00 0.00 58 1016.6
20260830115402 79 113 0.9 2.6 0.00 0.00 0.00 58 1016.4
20260830114857 80 191 0.9 2.6 0.00 0.00 0.00 58 1016.4
20260830114354 79 275 1.7 2.6 0.00 0.00 0.00 58 1016.4
20260830113848 80 41 0.9 0.9 0.00 0.00 0.00 58 1016.6
20260830113343 80 326 0.9 1.7 0.00 0.00 0.00 58 1016.4
20260830112839 80 254 0.9 1.7 0.00 0.00 0.00 58 1016.5
20260830112334 80 46 1.7 2.6 0.00 0.00 0.00 57 1016.5
20260830111830 80 24 1.7 3.5 0.00 0.00 0.00 57 1016.4
20260830111325 80 270 0.0 1.7 0.00 0.00 0.00 57 1016.3
20260830110820 80 291 1.7 2.6 0.00 0.00 0.00 56 1016.3
20260830110316 80 348 0.9 1.7 0.00 0.00 0.00 57 1016.4
20260830105815 80 102 0.9 2.6 0.00 0.00 0.00 56 1016.2
20260830105312 80 254 0.0 1.7 0.00 0.00 0.00 57 1016.2
20260830104808 80 40 0.0 0.9 0.00 0.00 0.00 56 1016.3
20260830104304 80 161 0.9 0.9 0.00 0.00 0.00 56 1016.3
20260830103803 80 221 0.0 2.6 0.00 0.00 0.00 56 1016.4
20260830103259 80 267 0.0 1.7 0.00 0.00 0.00 56 1016.2
20260830102757 81 140 1.7 2.6 0.00 0.00 0.00 56 1016.2
20260830102253 81 18 1.7 2.6 0.00 0.00 0.00 55 1016.1
20260830101749 81 59 0.0 1.7 0.00 0.00 0.00 55 1016.2
20260830101244 81 271 0.9 1.7 0.00 0.00 0.00 55 1016.2
20260830100743 81 70 0.9 1.7 0.00 0.00 0.00 54 1016.1
20260830100238 82 17 2.6 3.5 0.00 0.00 0.00 54 1016.1
20260830095737 82 140 0.9 3.5 0.00 0.00 0.00 54 1015.9
20260830095233 82 44 1.7 1.7 0.00 0.00 0.00 54 1016.2